Change the Weather History Date:

Sunday, July 14, 2013

  Actual Average Record
Temperature  
Mean Temperature 80 °F -  
Max Temperature 88 °F 78 °F 94 °F (1974)
Min Temperature 73 °F 63 °F 59 °F (1986)
Cooling Degree Days 16    
Growing Degree Days 30 (Base 50)    
Moisture  
Dew Point 73 °F    
Average Humidity 83    
Maximum Humidity 97    
Minimum Humidity 59    
Precipitation  
Precipitation 0.08 in - - ()
Sea Level Pressure  
Sea Level Pressure 30.28 in    
Wind  
Wind Speed 3 mph (SSW)    
Max Wind Speed 15 mph    
Max Gust Speed -    
Visibility 6 miles    
Events Fog , Rain , Thunderstorm    
Averages and records for this station are not official NWS values.
T = Trace of Precipitation, MM = Missing Value Source: NWS Daily Summary

Daily Weather History Graph

Daily Weather History Graph

Search for Another Location

Airport or City:

Trip Planner

Search our weather history database for the weather conditions in past years. The results will help you decide how hot, cold, wet, or windy it might be!

Date:

Astronomy

Jul. 14, 2013 Rise Set
Actual Time 5:30 AM EDT 8:23 PM EDT
Civil Twilight 4:58 AM EDT 8:56 PM EDT
Nautical Twilight 4:16 AM EDT 9:37 PM EDT
Astronomical Twilight 3:28 AM EDT 10:25 PM EDT
Moon 11:49 AM EDT (7/14) 11:29 PM EDT (7/14)
Length of Visible Light 15h 58m
Length of Day
14h 52m
Waxing Crescent, 35% of the Moon is Illuminated
Jul 14
Waxing Crescent
Jul 15
First Quarter
Jul 22
Full
Jul 29
Last Quarter
Aug 6
New

Hourly Weather History & Observations

Time (EDT) Temp. Heat Index Dew Point Humidity Pressure Visibility Wind Dir Wind Speed Gust Speed Precip Events Conditions
12:53 AM 75.0 °F - 72.0 °F 90% 30.30 in 4.0 mi Calm Calm - N/A   Overcast
1:53 AM 73.9 °F - 72.0 °F 93% 30.30 in 2.5 mi ESE 3.5 mph - N/A   Overcast
2:05 AM 73.4 °F - 71.6 °F 94% 30.30 in 1.2 mi East 4.6 mph - N/A   Overcast
2:19 AM 73.4 °F - 71.6 °F 94% 30.30 in 0.8 mi ESE 4.6 mph - N/A   Mist
2:26 AM 73.4 °F - 71.6 °F 94% 30.30 in 1.0 mi SE 5.8 mph - N/A   Mist
2:53 AM 73.9 °F - 71.1 °F 91% 30.30 in 2.0 mi Calm Calm - N/A   Overcast
3:05 AM 73.4 °F - 71.6 °F 94% 30.30 in 4.0 mi Calm Calm - N/A   Overcast
3:53 AM 73.9 °F - 73.0 °F 97% 30.30 in 5.0 mi Calm Calm - N/A   Overcast
4:24 AM 73.4 °F - 71.6 °F 94% 30.30 in 1.8 mi Calm Calm - 0.00 in   Overcast
4:40 AM 73.4 °F - 71.6 °F 94% 30.29 in 0.5 mi Calm Calm - 0.00 in   Mist
4:53 AM 73.9 °F - 72.0 °F 93% 30.29 in 0.5 mi Calm Calm - 0.00 in   Mist
4:59 AM 73.4 °F - 71.6 °F 94% 30.29 in 0.2 mi WSW 3.5 mph - 0.01 in   Mist
5:53 AM 73.9 °F - 72.0 °F 93% 30.30 in 0.2 mi SW 3.5 mph - 0.01 in Fog Fog
6:07 AM 73.4 °F - 71.6 °F 94% 30.30 in 0.2 mi Calm Calm - N/A Fog Fog
6:40 AM 73.4 °F - 71.6 °F 94% 30.30 in 1.0 mi West 3.5 mph - N/A   Mist
6:53 AM 75.0 °F - 73.0 °F 94% 30.30 in 1.5 mi Calm Calm - N/A   Overcast
7:10 AM 75.2 °F - 73.4 °F 94% 30.30 in 4.0 mi Calm Calm - N/A   Mostly Cloudy
7:53 AM 75.9 °F - 73.0 °F 91% 30.31 in 10.0 mi Variable 3.5 mph - N/A   Mostly Cloudy
8:15 AM 75.2 °F - 73.4 °F 94% 30.31 in 10.0 mi Calm Calm - N/A   Mostly Cloudy
8:53 AM 78.1 °F - 73.9 °F 87% 30.32 in 10.0 mi Calm Calm - N/A   Mostly Cloudy
9:03 AM 80.6 °F 86.2 °F 75.2 °F 84% 30.31 in 10.0 mi Calm Calm - N/A   Mostly Cloudy
9:53 AM 82.9 °F 90.2 °F 75.0 °F 77% 30.31 in 10.0 mi Calm Calm - N/A   Mostly Cloudy
10:53 AM 84.9 °F 91.4 °F 73.0 °F 67% 30.31 in 10.0 mi Calm Calm - N/A   Mostly Cloudy
11:53 AM 86.0 °F 92.2 °F 72.0 °F 63% 30.30 in 10.0 mi Variable 5.8 mph - N/A   Mostly Cloudy
12:53 PM 84.9 °F 92.1 °F 73.9 °F 69% 30.29 in 10.0 mi SSW 6.9 mph - N/A   Partly Cloudy
1:53 PM 84.9 °F 92.1 °F 73.9 °F 69% 30.28 in 10.0 mi SSW 8.1 mph - N/A   Scattered Clouds
2:53 PM 86.0 °F 92.2 °F 72.0 °F 63% 30.27 in 10.0 mi SSW 10.4 mph - N/A   Scattered Clouds
3:53 PM 86.0 °F 92.2 °F 72.0 °F 63% 30.25 in 10.0 mi SW 5.8 mph - N/A   Scattered Clouds
4:53 PM 88.0 °F 94.7 °F 72.0 °F 59% 30.24 in 10.0 mi SSW 6.9 mph - N/A   Scattered Clouds
5:53 PM 87.1 °F 93.6 °F 72.0 °F 61% 30.23 in 10.0 mi Variable 4.6 mph - N/A   Scattered Clouds
6:53 PM 84.9 °F 90.1 °F 71.1 °F 63% 30.22 in 10.0 mi SW 4.6 mph - N/A   Scattered Clouds
7:40 PM 82.4 °F 88.2 °F 73.4 °F 74% 30.23 in 1.8 mi West 5.8 mph - 0.00 in Rain Rain
7:53 PM 81.0 °F 86.2 °F 73.9 °F 79% 30.23 in 2.5 mi SSW 9.2 mph - N/A Rain Light Rain
8:00 PM 80.6 °F 85.4 °F 73.4 °F 79% 30.23 in 9.0 mi SSW 5.8 mph - N/A   Overcast
8:53 PM 80.1 °F 84.5 °F 73.9 °F 81% 30.24 in 10.0 mi SSW 4.6 mph - N/A   Mostly Cloudy
9:11 PM 80.6 °F 85.4 °F 73.4 °F 79% 30.25 in 2.5 mi NNE 15.0 mph - 0.01 in Rain Light Rain
9:32 PM 80.6 °F 85.4 °F 73.4 °F 79% 30.25 in 10.0 mi Calm Calm - 0.01 in   Mostly Cloudy
9:46 PM 78.8 °F - 73.4 °F 83% 30.24 in 10.0 mi Calm Calm - 0.02 in Thunderstorm Scattered Clouds
9:53 PM 79.0 °F - 73.9 °F 84% 30.24 in 10.0 mi Calm Calm - 0.02 in Thunderstorm Partly Cloudy
10:01 PM 78.8 °F - 73.4 °F 83% 30.24 in 10.0 mi Calm Calm - N/A   Clear
10:53 PM 78.1 °F - 73.0 °F 84% 30.24 in 10.0 mi South 4.6 mph - 0.02 in   Scattered Clouds
11:53 PM 78.1 °F - 73.0 °F 84% 30.23 in 10.0 mi Calm Calm - 0.03 in   Mostly Cloudy